Temperature
9 12 12 11 11 11 11 12 12 11 8 8 8 8 7 5 4 4 4 3 2 2 1 2 2 2 2 3 3 3 3 3 3 3 3 3 3 3 3 3 3 3 3 3
12 11 9 9 9 9 10 11 11 9 7 7 8 8 8 6 5 4 4 3 2 1 1 1 1 2 2 2 2 2 2 2 2 2 2 2 2 2 2 2 2 2 2 2
12 9 8 8 9 9 10 10 10 9 7 7 7 9 8 6 4 3 2 2 2 1 1 1 1 1 1 1 1 1 1 1 2 2 1 2 2 2 2 2 2 2 1 1
9 7 7 8 8 9 10 8 8 7 8 10 8 10 10 7 5 4 3 2 1 1 1 0 0 1 1 1 1 1 1 1 1 1 1 1 1 1 1 1 1 1 1 1
9 7 7 8 8 7 8 6 6 7 7 8 8 8 10 6 6 5 4 2 1 1 0 0 0 0 0 0 0 0 0 0 0 0 0 -0 -0 -0 -0 -0 -0 0 0 0
7 6 6 7 6 6 6 6 6 6 7 8 8 8 10 8 7 6 4 2 1 0 0 0 0 0 -0 -0 -0 -0 -0 -0 -0 -1 -1 -1 -1 -1 -1 -1 -1 -1 -1 -1
8 6 5 5 6 6 7 8 9 9 9 10 6 7 8 7 5 4 3 2 1 0 0 -0 -0 -0 -0 -1 -1 -1 -1 -1 -1 -1 -1 -1 -1 -2 -2 -2 -2 -2 -2 -1
9 8 6 5 6 7 7 8 9 9 10 10 6 7 8 4 3 2 1 1 0 -0 -0 -0 -1 -1 -1 -1 -1 -1 -1 -2 -2 -2 -2 -2 -2 -2 -2 -2 -2 -2 -2 -2
9 8 5 4 4 6 6 7 6 7 6 6 8 7 6 4 3 2 1 1 -0 -0 -1 -1 -1 -1 -1 -2 -2 -2 -2 -2 -2 -2 -2 -2 -3 -3 -3 -3 -3 -3 -3 -3
7 7 5 4 4 4 5 6 6 7 7 8 9 8 8 5 4 3 2 1 -0 -1 -1 -1 -2 -2 -2 -2 -2 -2 -3 -3 -3 -3 -3 -3 -3 -3 -3 -3 -3 -3 -3 -3
6 6 5 4 4 5 4 4 5 6 6 7 8 9 6 5 4 3 2 0 -1 -1 -2 -2 -2 -2 -2 -3 -3 -3 -3 -3 -3 -3 -3 -4 -4 -4 -4 -4 -4 -4 -4 -4
4 6 5 5 3 3 4 5 5 6 5 4 6 7 3 3 2 1 0 -1 -1 -2 -2 -2 -3 -3 -3 -3 -3 -3 -4 -4 -4 -4 -4 -4 -4 -4 -5 -5 -5 -5 -5 -5
3 4 5 6 3 2 2 3 3 4 4 4 5 6 2 1 0 -0 -1 -1 -2 -2 -3 -3 -3 -4 -4 -4 -4 -4 -4 -4 -4 -4 -5 -5 -5 -5 -5 -5 -5 -5 -5 -5
3 3 5 7 7 4 2 2 2 3 3 4 4 5 3 2 1 0 -1 -2 -2 -3 -3 -4 -4 -4 -4 -4 -5 -5 -5 -5 -5 -5 -5 -5 -5 -6 -6 -6 -6 -6 -6 -6
3 3 3 3 2 2 2 2 1 1 3 4 4 3 3 2 1 -0 -2 -3 -3 -4 -4 -4 -4 -5 -5 -5 -5 -5 -5 -5 -5 -6 -6 -6 -6 -6 -6 -6 -6 -6 -6 -6
1 2 1 1 1 1 1 1 1 1 2 2 2 2 1 -0 -1 -2 -3 -3 -4 -4 -4 -5 -5 -5 -5 -6 -6 -6 -6 -6 -6 -6 -6 -7 -7 -7 -7 -7 -7 -7 -7 -7
1 1 1 3 1 0 2 2 1 1 0 1 2 2 -0 -1 -2 -2 -3 -4 -4 -5 -5 -5 -5 -6 -6 -6 -6 -6 -6 -7 -7 -7 -7 -7 -7 -7 -8 -8 -8 -8 -8 -7
-0 0 1 1 1 2 4 -0 0 0 -0 -1 -0 -1 -1 -2 -3 -4 -4 -4 -5 -5 -5 -5 -6 -6 -6 -7 -7 -7 -7 -7 -7 -7 -7 -8 -8 -8 -8 -8 -8 -8 -8 -8
-1 0 1 1 2 3 2 -1 -1 -1 -0 -1 -2 -2 -3 -4 -4 -4 -4 -5 -5 -5 -6 -6 -6 -6 -7 -7 -7 -7 -7 -8 -8 -8 -8 -8 -8 -8 -9 -9 -9 -9 -9 -9
-2 -1 0 -0 1 3 3 -1 -3 -1 0 -2 -3 -3 -4 -4 -2 -2 -5 -5 -6 -6 -6 -6 -6 -7 -7 -7 -8 -8 -8 -8 -8 -8 -9 -9 -9 -9 -9 -9 -9 -9 -9 -9
-2 -2 -1 -0 1 2 -0 -3 -3 0 1 -3 -4 -4 -5 -4 -4 -5 -6 -6 -6 -6 -7 -7 -7 -7 -7 -8 -8 -8 -8 -9 -9 -9 -9 -9 -9 -9 -9 -9 -9 -9 -9 -9
-1 -1 -2 -1 -0 1 -3 -4 -2 -1 -4 -4 -4 -5 -5 -6 -6 -6 -6 -7 -7 -7 -7 -7 -7 -8 -8 -8 -9 -9 -9 -9 -9 -9 -9 -9 -9 -9 -10 -10 -10 -10 -10 -10
-2 -1 -1 -1 -0 -3 -5 -4 -4 -4 -5 -5 -5 -6 -6 -6 -7 -7 -7 -7 -7 -8 -8 -8 -8 -8 -8 -9 -9 -9 -9 -9 -9 -9 -9 -9 -10 -10 -10 -10 -10 -10 -10 -10
-4 -5 -4 -4 -4 -5 -6 -5 -5 -5 -5 -5 -6 -6 -6 -7 -7 -7 -8 -8 -8 -8 -8 -8 -9 -9 -9 -9 -9 -10 -10 -10 -10 -10 -10 -10 -10 -10 -10 -10 -10 -11 -11 -11
-4 -5 -4 -4 -5 -6 -6 -6 -6 -6 -6 -6 -6 -7 -7 -7 -8 -8 -8 -8 -8 -9 -9 -9 -9 -9 -9 -9 -10 -10 -10 -10 -10 -10 -10 -10 -10 -11 -11 -11 -11 -11 -11 -11
-6 -6 -4 -3 -5 -5 -5 -6 -6 -6 -6 -6 -7 -7 -7 -8 -8 -8 -8 -8 -9 -9 -9 -9 -9 -10 -10 -10 -10 -10 -10 -10 -10 -10 -11 -11 -11 -11 -11 -11 -11 -11 -11 -11
Wind_Speed
1 2 3 3 4 2 3 5 7 4 1 4 8 10 8 7 8 8 7 6 5 5 3 2 2 1 1 1 2 3 4 4 5 4 4 3 4 4 5 6 8 8 9 9
2 3 2 1 3 3 4 5 6 3 1 4 7 11 9 8 9 9 8 7 6 5 3 3 2 2 1 1 1 2 3 3 4 4 4 3 3 3 4 5 6 8 8 8
4 1 2 3 3 4 5 6 6 5 3 3 6 8 6 5 6 6 6 6 6 6 5 4 3 3 2 1 0 1 2 3 4 4 4 4 3 3 3 5 5 8 8 8
2 1 2 3 3 4 5 3 4 4 5 4 3 6 5 5 6 7 7 7 6 5 5 4 4 3 2 1 1 0 1 2 3 4 4 4 4 4 5 5 5 7 7 8
2 2 3 4 2 3 2 0 2 4 5 6 6 7 6 4 7 8 7 7 6 5 5 5 4 3 2 2 1 0 0 2 3 3 3 4 4 4 4 5 5 6 6 7
1 1 1 1 1 2 2 1 1 2 3 6 6 7 6 4 5 5 6 6 5 5 5 4 3 2 2 1 1 0 0 1 2 3 3 4 5 5 5 6 6 6 5 6
2 2 1 1 2 3 2 2 3 3 4 5 3 6 7 2 2 4 5 5 5 5 5 4 3 3 2 2 1 1 1 2 2 3 3 4 5 5 5 6 6 6 6 6
4 4 4 2 2 3 4 4 4 5 6 5 3 7 4 1 1 2 4 4 5 4 4 4 4 3 3 2 2 1 1 2 3 3 4 4 5 5 4 6 6 6 6 6
4 3 2 1 1 2 4 4 2 3 4 6 7 6 5 3 3 3 4 4 4 4 3 3 3 3 2 2 2 2 2 2 3 3 4 4 5 5 6 6 6 6 6 7
3 3 2 1 2 0 2 3 3 4 5 7 7 7 4 4 5 5 5 4 3 3 2 2 2 2 2 1 1 2 2 2 3 4 4 4 5 6 6 6 7 7 8 8
2 3 2 3 6 6 4 4 5 4 4 5 7 4 0 3 4 5 4 3 2 2 2 2 2 2 2 2 1 1 2 3 3 4 5 5 6 6 7 6 7 7 7 8
2 2 4 4 1 2 4 6 6 5 5 5 6 6 2 1 1 2 3 2 2 2 2 2 2 2 2 2 2 2 2 3 4 4 5 6 6 6 7 7 7 8 8 8
4 3 3 3 3 3 4 5 6 3 3 6 7 7 2 0 1 2 3 3 3 2 2 2 2 2 3 3 2 3 3 4 4 5 5 6 6 7 7 7 8 8 8 8
3 4 7 9 5 3 5 7 8 8 7 9 13 13 8 6 5 5 4 4 4 3 3 3 3 3 3 3 3 3 4 4 5 5 6 6 7 7 7 8 8 8 8 9
3 6 7 9 7 5 8 9 11 13 13 12 13 14 14 10 7 5 4 4 4 4 4 4 5 4 4 4 4 4 4 4 5 6 6 7 7 7 7 8 8 8 8 9
3 5 4 7 6 6 9 12 14 15 14 16 17 16 9 6 4 5 5 4 4 5 5 5 5 5 5 5 5 5 5 5 5 6 7 6 6 7 7 8 8 9 9 9
5 5 4 6 3 4 9 10 12 8 9 9 13 10 5 5 5 6 6 5 5 5 6 5 5 5 5 5 5 5 5 5 6 6 6 6 6 7 8 8 9 9 9 9
6 5 3 3 2 8 3 2 5 8 9 10 8 6 5 6 5 5 5 4 5 5 6 5 5 5 5 5 5 5 5 5 6 6 6 6 7 8 8 8 9 9 9 9
5 5 4 3 6 9 4 3 4 6 7 7 10 9 7 4 4 4 3 3 4 5 5 5 5 5 4 4 4 5 5 6 6 6 7 7 7 8 8 9 9 9 9 9
2 4 4 4 6 8 3 2 2 2 5 3 5 6 4 2 4 3 1 3 4 4 4 4 4 4 4 4 4 5 5 6 7 7 8 8 8 8 8 9 9 8 8 9
4 4 7 8 8 8 0 2 4 4 3 1 3 4 4 4 5 3 3 4 4 4 4 4 4 4 4 4 4 5 6 6 7 7 8 8 8 8 9 9 8 8 8 9
7 7 7 6 8 8 4 6 5 2 2 1 1 2 3 3 3 3 4 4 4 4 4 4 4 5 4 3 4 5 6 7 6 7 7 8 8 8 7 8 8 7 7 8
7 6 5 7 5 1 3 3 2 1 2 2 3 3 3 3 4 4 4 5 4 4 4 4 4 5 4 4 4 6 6 6 6 7 7 8 8 7 7 7 7 7 6 6
4 1 3 5 6 4 4 3 3 2 3 3 3 3 3 4 4 5 5 5 4 4 4 4 4 5 5 5 5 6 6 5 6 7 7 7 7 7 7 6 6 6 6 6
3 4 4 5 5 4 4 4 3 3 2 2 2 3 3 4 4 5 5 5 4 4 4 4 4 5 6 6 6 6 5 5 6 6 6 6 6 6 6 6 6 7 6 7
3 4 5 6 3 4 5 3 3 3 3 3 3 3 3 3 4 5 5 4 4 4 5 5 5 6 6 6 6 6 5 5 5 5 6 5 5 5 5 6 6 8 9 11
Wind_Direction
43 168 200 209 222 248 222 235 256 262 243 257 251 257 248 222 215 217 216 209 212 205 187 165 158 144 110 61 37 24 19 16 14 10 360 357 2 1 10 13 9 4 1 356
165 212 225 186 183 197 216 241 259 264 255 268 273 270 254 224 216 217 217 216 212 198 183 172 168 167 168 153 40 19 12 8 11 7 357 345 341 348 356 1 3 3 358 354
204 145 173 178 184 216 237 245 259 272 294 242 284 267 219 208 211 215 218 214 212 202 195 191 190 188 184 184 236 358 2 0 5 5 5 0 351 344 346 351 354 356 353 351
180 190 178 191 215 236 252 245 250 259 271 264 260 281 234 207 218 218 214 208 210 204 198 197 198 195 194 201 204 227 2 3 8 9 5 360 347 340 334 334 336 340 345 348
186 170 191 217 239 230 248 258 241 251 254 268 238 255 259 187 231 224 212 208 207 203 198 199 199 198 197 199 196 201 15 360 6 8 360 344 334 329 328 330 330 336 341 344
138 130 256 224 98 162 142 142 166 200 232 254 234 233 262 210 222 209 204 202 198 197 196 198 196 189 190 185 186 253 297 339 351 351 344 339 332 326 326 330 330 331 332 334
210 184 160 163 151 154 196 237 270 252 238 250 168 234 256 218 213 208 201 195 190 191 195 197 201 203 201 199 214 241 274 314 328 331 328 323 325 319 317 320 322 324 322 323
229 232 184 185 212 206 204 233 249 268 272 278 222 243 259 136 239 214 201 198 193 195 203 208 210 216 217 214 227 244 274 303 317 320 324 321 320 318 313 315 314 312 311 312
227 228 115 148 309 213 194 213 272 269 278 272 252 256 267 216 235 209 196 192 202 206 212 220 220 224 227 224 242 259 274 298 311 316 321 320 319 320 313 312 311 309 312 313
215 245 207 176 175 191 274 176 184 218 258 269 265 256 255 221 220 202 196 195 204 206 216 226 231 238 239 252 271 280 272 285 297 307 313 313 313 315 310 306 307 309 311 312
211 224 217 203 211 211 183 196 215 224 249 259 276 264 235 227 205 199 197 193 201 212 227 237 245 253 254 258 266 278 281 287 294 302 306 309 309 312 307 303 305 308 308 308
187 217 244 239 263 301 226 218 200 222 235 237 266 275 75 190 186 199 219 225 233 244 246 243 245 245 250 254 273 288 292 286 289 297 301 304 306 307 304 303 305 306 306 306
166 189 248 240 205 195 223 218 213 227 239 234 246 262 90 93 223 234 241 260 265 260 261 260 256 250 253 262 274 286 294 300 299 297 297 299 301 303 302 302 303 303 304 304
195 217 234 255 280 209 225 224 213 212 234 247 246 261 271 270 264 266 264 269 269 262 266 275 278 272 269 271 276 286 295 302 304 297 293 292 295 298 298 300 300 300 301 301
207 242 249 269 276 259 252 242 223 224 236 247 259 261 272 274 270 273 275 268 265 269 277 282 285 281 277 278 284 290 298 301 301 297 287 286 291 293 295 298 299 300 300 300
214 237 248 265 259 256 264 254 238 237 243 248 261 269 280 280 274 269 263 257 258 269 282 288 286 280 276 280 287 292 297 299 299 293 284 283 288 291 293 295 297 298 298 299
203 201 230 262 273 280 261 241 222 219 222 227 243 256 267 272 263 261 261 253 256 275 286 285 279 273 273 277 283 288 294 297 295 292 286 282 286 289 292 295 295 296 297 298
196 197 222 258 262 248 256 88 200 216 232 228 244 263 268 274 285 276 262 249 265 282 289 285 279 277 279 282 286 293 294 292 292 296 297 293 290 290 293 294 294 296 297 296
212 194 208 223 253 268 261 194 183 214 253 228 238 255 270 287 294 273 247 253 269 283 287 284 279 278 281 284 292 291 288 291 293 297 300 300 292 290 292 292 293 294 295 293
164 197 212 218 243 256 262 140 151 186 258 208 219 238 249 242 268 283 318 293 292 297 293 289 288 288 286 291 289 283 286 292 295 298 298 297 295 292 291 289 289 290 290 291
180 198 216 228 243 260 272 144 163 213 280 138 210 224 216 239 276 302 308 307 304 304 297 291 287 283 285 290 285 283 288 290 295 298 297 297 296 293 290 290 288 288 289 292
199 197 206 209 227 247 143 154 196 265 354 299 250 242 246 263 284 294 299 301 305 308 307 299 291 290 293 290 285 286 289 298 302 300 298 299 298 296 294 293 293 290 289 291
218 216 213 209 227 349 164 203 250 297 281 288 277 265 249 266 278 289 296 298 300 303 304 300 289 290 296 292 285 286 295 303 303 302 301 301 300 297 295 293 293 295 292 291
220 248 230 248 261 272 257 259 276 281 285 288 272 259 259 263 272 284 289 293 298 300 302 302 296 295 301 302 296 293 299 301 301 300 301 301 302 302 301 296 293 294 296 296
227 194 227 254 278 298 266 256 262 285 296 295 291 274 256 256 268 277 284 287 288 293 298 298 294 295 300 305 303 304 303 302 300 299 298 301 302 304 304 300 295 293 290 295
212 203 222 255 255 255 276 274 270 264 276 278 282 288 280 263 267 278 282 284 284 287 293 295 294 296 300 304 303 306 307 302 299 300 302 302 304 305 306 305 306 301 301 305
Height
1528 1527 1526 1528 1530 1529 1528 1528 1527 1530 1537 1537 1533 1531 1531 1534 1535 1535 1536 1536 1537 1537 1538 1537 1537 1538 1538 1538 1537 1537 1536 1535 1535 1533 1532 1531 1530 1529 1528 1526 1525 1523 1522 1521
1527 1528 1532 1533 1533 1532 1530 1529 1527 1532 1537 1536 1531 1528 1527 1530 1530 1531 1532 1533 1534 1534 1535 1535 1536 1536 1536 1536 1536 1535 1534 1534 1533 1532 1530 1529 1528 1527 1525 1524 1523 1521 1520 1518
1524 1531 1534 1534 1533 1531 1530 1529 1528 1531 1535 1536 1534 1519 1522 1526 1529 1529 1530 1531 1531 1532 1532 1533 1533 1534 1534 1533 1533 1533 1533 1532 1531 1530 1529 1527 1526 1524 1523 1522 1520 1519 1517 1515
1530 1533 1534 1532 1532 1531 1527 1533 1534 1534 1531 1524 1530 1514 1511 1520 1525 1526 1527 1528 1528 1529 1530 1531 1531 1531 1531 1531 1531 1531 1531 1530 1529 1528 1526 1525 1523 1522 1520 1519 1517 1516 1514 1512
1529 1533 1533 1531 1532 1533 1531 1536 1535 1534 1531 1528 1527 1523 1506 1519 1519 1520 1523 1525 1526 1527 1528 1528 1529 1529 1530 1530 1529 1529 1529 1528 1527 1526 1524 1523 1521 1520 1518 1516 1515 1513 1511 1510
1533 1535 1534 1533 1535 1535 1536 1536 1535 1534 1530 1523 1519 1519 1502 1509 1512 1515 1520 1522 1524 1525 1526 1527 1527 1528 1528 1528 1528 1527 1527 1526 1525 1523 1522 1520 1519 1517 1515 1513 1511 1510 1508 1507
1529 1533 1535 1535 1534 1535 1534 1529 1522 1519 1517 1509 1523 1521 1507 1510 1514 1515 1518 1520 1522 1523 1524 1524 1525 1525 1525 1526 1525 1525 1524 1523 1522 1521 1519 1518 1516 1514 1512 1510 1508 1506 1505 1503
1522 1524 1532 1534 1532 1530 1531 1528 1522 1517 1508 1505 1522 1514 1505 1513 1515 1516 1518 1519 1520 1521 1522 1523 1523 1523 1523 1523 1523 1522 1521 1521 1519 1518 1517 1515 1513 1511 1509 1507 1505 1503 1501 1500
1519 1521 1533 1534 1534 1532 1530 1528 1530 1526 1526 1523 1506 1507 1509 1513 1514 1515 1516 1518 1518 1519 1520 1520 1520 1520 1520 1520 1520 1519 1519 1517 1516 1515 1514 1512 1510 1508 1506 1504 1502 1500 1498 1496
1524 1525 1531 1534 1534 1534 1532 1530 1531 1526 1520 1508 1498 1501 1498 1507 1509 1512 1514 1516 1517 1518 1518 1518 1518 1518 1518 1517 1517 1516 1516 1514 1513 1512 1510 1508 1507 1505 1503 1501 1499 1496 1494 1492
1527 1525 1529 1532 1530 1526 1532 1532 1527 1523 1522 1514 1501 1495 1503 1504 1507 1510 1512 1514 1515 1515 1516 1516 1515 1515 1515 1514 1514 1513 1512 1511 1510 1508 1507 1505 1503 1501 1499 1497 1495 1492 1490 1488
1527 1525 1523 1526 1531 1532 1529 1526 1525 1522 1522 1523 1512 1503 1508 1508 1509 1511 1512 1513 1513 1513 1513 1513 1512 1512 1511 1511 1510 1509 1508 1507 1506 1504 1503 1501 1499 1497 1495 1493 1491 1489 1486 1484
1528 1526 1521 1518 1528 1533 1530 1528 1527 1526 1523 1520 1513 1502 1509 1510 1510 1511 1511 1511 1511 1511 1511 1510 1509 1509 1508 1507 1506 1505 1504 1503 1502 1500 1499 1497 1495 1493 1491 1489 1487 1485 1482 1480
1525 1523 1517 1508 1506 1516 1523 1525 1526 1525 1519 1512 1507 1500 1504 1507 1508 1509 1509 1509 1509 1509 1508 1507 1506 1505 1504 1503 1502 1501 1500 1499 1498 1496 1494 1492 1491 1489 1487 1485 1483 1480 1478 1475
1525 1521 1520 1518 1518 1518 1517 1518 1521 1520 1512 1508 1499 1501 1499 1503 1505 1506 1507 1507 1507 1506 1505 1504 1503 1502 1500 1499 1498 1497 1495 1494 1493 1491 1490 1488 1486 1485 1482 1480 1478 1476 1473 1471
1523 1521 1521 1518 1519 1519 1517 1513 1513 1513 1511 1507 1504 1501 1501 1502 1504 1504 1504 1504 1503 1503 1502 1501 1499 1498 1496 1495 1494 1492 1491 1490 1489 1487 1485 1484 1482 1480 1478 1476 1473 1471 1469 1466
1521 1521 1519 1510 1517 1517 1506 1502 1505 1506 1504 1504 1500 1497 1500 1501 1501 1501 1501 1501 1500 1500 1498 1497 1495 1494 1493 1492 1490 1489 1487 1486 1484 1482 1481 1479 1477 1475 1473 1471 1468 1466 1464 1461
1518 1518 1516 1513 1515 1507 1493 1500 1500 1501 1500 1501 1499 1498 1498 1499 1498 1498 1498 1498 1497 1496 1495 1493 1492 1490 1489 1488 1486 1485 1483 1482 1480 1478 1476 1475 1473 1470 1468 1466 1464 1461 1459 1456
1516 1515 1514 1512 1504 1492 1493 1498 1500 1500 1495 1497 1497 1496 1497 1497 1496 1495 1495 1495 1494 1493 1492 1490 1489 1487 1485 1484 1482 1481 1480 1478 1476 1474 1472 1470 1468 1466 1464 1461 1459 1457 1454 1452
1516 1515 1514 1511 1503 1490 1486 1496 1497 1499 1492 1493 1493 1494 1495 1495 1493 1492 1493 1492 1491 1490 1489 1487 1485 1483 1482 1480 1479 1477 1476 1474 1472 1469 1467 1465 1463 1461 1459 1457 1455 1452 1450 1447
1513 1513 1511 1507 1499 1487 1493 1496 1498 1493 1486 1491 1491 1492 1493 1493 1492 1491 1490 1489 1488 1487 1486 1484 1482 1481 1479 1477 1475 1473 1472 1470 1468 1466 1463 1461 1459 1457 1455 1452 1450 1448 1445 1443
1501 1503 1506 1503 1498 1489 1494 1495 1493 1489 1489 1489 1490 1490 1490 1490 1489 1488 1487 1486 1485 1484 1482 1481 1479 1477 1476 1474 1472 1470 1468 1466 1464 1462 1459 1457 1455 1453 1450 1448 1446 1443 1441 1438
1498 1496 1493 1493 1490 1490 1491 1490 1489 1489 1489 1488 1488 1489 1488 1487 1486 1486 1485 1484 1482 1481 1479 1477 1476 1474 1472 1470 1468 1466 1464 1462 1460 1458 1455 1453 1451 1449 1447 1444 1442 1439 1437 1435
1496 1497 1496 1493 1489 1489 1489 1488 1488 1488 1487 1487 1487 1486 1486 1484 1484 1483 1482 1480 1479 1477 1476 1474 1472 1470 1468 1467 1465 1462 1460 1458 1456 1454 1451 1449 1447 1445 1443 1441 1439 1436 1434 1431
1491 1494 1493 1490 1488 1487 1485 1485 1485 1485 1485 1485 1484 1484 1483 1482 1481 1480 1479 1477 1476 1474 1472 1471 1469 1467 1465 1463 1461 1459 1457 1454 1452 1450 1448 1446 1444 1442 1439 1437 1435 1433 1431 1429
1489 1490 1488 1483 1484 1485 1483 1483 1483 1482 1482 1482 1481 1480 1480 1479 1478 1477 1475 1474 1473 1471 1469 1467 1465 1463 1461 1459 1457 1455 1453 1451 1448 1446 1444 1443 1440 1438 1436 1433 1431 1429 1427 1424